Probability
1 1 0 0 0 0 0 0 0 0 0 0 0 0 0 0 0 0 0 0 0 0 0 0 0 0 0 0 0 0 0 0 0 0 0 0 1 1
1 0 0 0 0 0 0 0 0 0 0 0 0 0 0 0 0 0 0 0 0 0 0 0 0 0 0 0 0 0 0 0 0 0 0 0 0 1
0 0 0 0 0 0 0 0 0 0 0 0 0 0 0 0 0 0 0 0 0 0 0 0 0 0 0 0 0 0 0 0 0 0 0 0 0 0
0 0 0 0 0 0 0 0 0 0 0 0 0 0 0 0 0 0 0 0 0 0 0 0 0 0 0 0 0 0 0 0 0 0 0 0 0 0
0 0 0 0 0 0 0 0 0 0 0 0 0 0 0 0 0 0 0 0 0 0 0 0 0 0 0 0 0 0 0 0 0 0 0 0 0 0
0 0 0 0 0 0 0 0 0 0 0 0 0 0 0 0 0 0 0 0 0 0 0 0 0 0 0 0 0 0 0 0 0 0 0 0 0 0
0 0 0 0 0 0 0 0 0 0 0 0 0 0 0 0 0 0 0 0 0 0 0 0 0 0 0 0 0 0 0 0 0 0 0 0 0 0
0 0 0 0 0 0 0 0 0 0 0 0 0 0 0 0 0 0 0 0 0 0 0 0 0 0 0 0 0 0 0 0 0 0 0 0 0 0
0 0 0 0 0 0 0 0 0 0 0 0 0 0 0 0 0 0 0 0 0 0 0 0 0 0 0 0 0 0 0 0 0 0 0 0 0 0
0 0 0 0 0 0 0 0 0 0 0 0 0 0 0 0 0 0 0 0 0 0 0 0 0 0 0 0 0 0 0 0 0 0 0 0 0 0
0 0 0 0 0 0 0 0 0 0 0 0 0 0 0 0 0 0 0 0 0 0 0 0 0 0 0 0 0 0 0 0 0 0 0 0 0 0
0 0 0 0 0 0 0 0 0 0 0 0 0 0 0 0 0 0 0 0 0 0 0 0 0 0 0 0 0 0 0 0 0 0 0 0 0 0
0 0 0 0 0 0 0 0 0 0 0 0 0 0 0 0 0 0 0 0 0 0 0 0 0 0 0 0 0 0 0 0 0 0 0 0 0 0
0 0 0 0 0 0 0 0 0 0 0 0 0 0 0 0 0 0 0 0 0 0 0 0 0 0 0 0 0 0 0 0 0 0 0 0 0 0
0 0 0 0 0 0 0 0 0 0 0 0 0 0 0 0 0 0 0 0 0 0 0 0 0 0 0 0 0 0 0 0 0 0 0 0 0 0
0 0 0 0 0 0 0 0 0 0 0 0 0 0 0 0 0 0 0 0 0 0 0 0 0 0 0 0 0 0 0 0 0 0 0 0 0 0
0 0 0 0 0 0 0 0 0 0 0 0 0 0 0 0 0 0 0 0 0 0 0 0 0 0 0 0 0 0 0 0 0 0 0 0 0 0
0 0 0 0 0 0 0 1 0 0 0 0 0 0 0 0 0 0 0 0 0 0 0 0 0 0 0 0 0 0 0 0 0 0 0 0 0 0
0 0 0 0 0 0 0 0 0 0 0 0 0 0 0 0 0 0 0 0 0 0 0 0 0 0 0 0 0 0 0 0 0 0 0 0 0 0
0 0 0 0 0 0 0 0 0 0 0 0 0 0 0 0 0 0 0 0 0 0 0 0 0 0 0 0 0 0 0 0 0 0 0 0 0 0
0 0 0 0 0 0 0 0 0 0 0 0 0 0 0 0 0 0 0 0 0 0 0 0 0 0 0 0 0 0 0 0 0 0 0 0 0 0
0 0 0 0 0 0 0 0 0 0 0 0 0 0 0 0 0 0 0 0 0 0 0 0 0 0 0 0 0 0 0 0 0 0 0 0 0 0
0 0 0 0 0 0 0 0 0 0 0 0 0 0 0 0 0 0 0 0 0 0 0 0 0 0 0 0 0 0 0 0 0 0 0 0 0 0
Wind_Speed
4 4 3 3 3 3 3 3 3 4 4 3 2 2 2 2 4 3 4 8 10 10 10 10 10 10 11 12 12 12 13 13 14 14 14 14 14 12
3 4 4 3 3 3 3 3 3 4 4 2 3 3 3 3 5 4 4 9 10 10 10 10 10 10 11 11 11 12 12 13 13 14 14 14 14 13
3 3 4 4 3 3 3 3 3 3 5 4 3 3 3 4 4 3 3 4 5 10 10 10 10 10 11 11 11 12 12 12 13 13 14 13 13 13
4 3 4 3 3 3 3 3 3 4 4 5 3 3 3 3 3 4 4 4 4 8 10 10 10 10 10 11 11 11 11 12 12 12 12 12 12 12
4 4 3 3 3 2 3 3 3 2 2 3 4 2 2 3 3 4 4 4 5 6 8 8 9 10 10 11 11 10 10 11 11 10 11 11 10 11
3 3 3 3 4 3 3 3 3 2 2 2 3 3 3 2 2 3 4 3 4 4 5 6 8 9 10 10 10 10 10 10 10 10 9 9 8 9
2 2 3 3 5 4 3 3 3 3 2 3 3 3 3 2 3 3 4 5 5 3 3 4 4 4 5 8 9 9 9 9 9 9 8 8 8 8
2 2 2 3 4 4 5 5 4 4 3 3 3 4 4 4 3 3 4 4 4 2 3 5 3 4 4 4 7 9 8 8 8 8 7 7 8 8
2 2 2 2 2 2 2 3 4 5 5 4 4 5 5 4 4 4 4 4 5 3 3 5 3 4 4 4 8 7 7 7 7 7 7 7 7 7
2 2 2 2 2 2 1 2 2 3 3 3 4 5 5 4 5 5 5 4 4 3 1 3 3 4 4 4 6 6 7 6 6 6 6 6 6 6
1 1 2 2 2 2 1 2 3 2 3 4 5 4 5 6 5 3 3 2 3 3 1 1 2 3 4 3 4 6 6 7 6 6 6 5 5 5
1 2 3 3 2 2 2 2 3 3 2 3 3 4 3 4 5 3 3 3 2 2 1 1 2 2 3 3 2 3 4 6 7 7 6 6 5 2
2 2 2 2 3 2 2 2 3 2 2 2 2 2 2 2 2 2 2 2 2 3 2 1 1 2 2 4 3 2 2 3 3 4 6 7 6 4
2 2 1 2 2 2 2 2 3 2 1 1 1 2 2 2 2 3 2 2 2 3 3 2 2 2 2 3 4 3 3 3 2 3 3 6 6 6
1 1 2 3 3 2 3 3 2 1 1 1 2 2 2 2 2 2 2 2 2 2 2 2 2 2 2 3 3 3 3 3 2 2 3 3 3 3
1 1 2 3 2 2 2 1 1 1 0 1 2 2 2 1 2 2 2 2 2 2 2 2 2 2 2 3 2 3 3 2 3 3 3 3 3 2
0 1 1 1 2 1 1 1 1 1 1 1 1 2 2 2 2 2 2 2 1 2 3 3 2 2 2 2 2 2 2 2 2 3 3 3 3 2
0 0 1 1 1 2 2 2 1 1 1 1 1 2 2 2 2 2 2 2 2 2 2 3 3 3 2 0 1 2 2 2 2 2 2 2 3 3
1 0 1 1 1 2 1 1 1 2 1 1 1 2 2 2 2 2 2 2 2 2 2 2 2 2 2 3 2 1 1 2 2 2 2 1 2 3
1 1 1 1 1 1 1 1 1 2 1 1 2 2 2 2 2 2 2 2 2 2 2 2 2 2 1 2 2 3 3 2 2 2 2 2 2 3
1 1 1 1 1 1 1 1 1 1 1 1 2 2 2 2 2 2 2 3 2 2 2 3 3 5 2 1 1 3 3 3 2 1 2 1 2 2
1 1 2 2 1 1 2 1 1 1 1 1 2 2 2 2 2 2 2 2 2 2 2 3 3 3 2 2 2 3 3 4 4 4 3 1 0 1
1 1 2 2 2 1 1 1 1 1 1 1 2 2 2 2 2 1 2 1 1 2 2 3 3 2 2 2 2 2 4 4 3 3 3 4 4 3
Wind_Direction
233 229 231 232 221 223 218 213 217 258 266 248 250 245 258 270 296 296 290 303 309 307 305 303 301 302 302 302 304 306 308 310 309 309 306 307 308 310
229 223 231 236 226 221 220 220 216 227 256 251 248 259 271 285 294 295 290 304 305 304 302 301 299 298 299 300 302 304 305 305 307 306 306 305 307 307
231 225 238 237 227 221 218 217 219 219 251 270 261 264 265 270 290 290 286 285 291 300 299 300 297 295 297 299 300 301 303 303 305 304 305 305 307 305
234 232 242 235 228 224 216 222 229 225 233 264 278 272 273 275 288 290 296 294 284 293 296 298 298 297 299 299 300 301 302 303 304 304 305 303 304 304
233 230 236 221 226 228 221 227 232 235 226 246 277 281 285 295 304 300 294 288 291 294 296 297 298 302 303 301 301 302 303 304 303 304 304 303 305 307
235 229 228 223 223 221 227 228 222 222 226 242 270 284 281 285 287 300 306 302 300 303 302 304 303 306 306 304 302 300 300 304 304 306 307 309 308 311
247 240 236 234 238 234 229 223 219 223 232 245 265 281 281 286 284 289 294 302 297 289 303 303 303 302 304 302 302 299 301 305 306 309 309 310 308 307
248 257 253 253 255 256 250 248 240 234 237 246 257 261 273 275 276 279 287 301 298 300 311 300 301 297 298 293 301 305 305 308 308 311 308 308 311 311
254 262 275 286 294 274 272 281 275 268 253 241 244 255 262 262 269 273 271 276 277 287 303 289 298 296 302 306 311 312 311 312 315 315 313 309 313 317
277 267 269 280 270 267 269 270 270 270 263 253 242 252 259 258 249 260 268 279 288 285 276 279 294 299 308 310 316 322 323 321 325 329 332 330 331 333
288 296 286 270 283 283 274 278 287 287 288 288 286 290 297 296 286 274 270 281 296 297 274 275 292 304 303 302 314 331 335 334 332 333 339 341 339 336
306 294 287 287 288 279 254 262 280 290 306 314 316 321 318 310 306 262 240 248 280 286 261 288 289 321 312 304 312 323 329 327 330 333 341 349 342 337
294 292 286 301 300 297 285 270 279 286 279 284 298 313 323 314 302 293 262 234 241 258 263 297 283 298 284 303 311 315 326 323 327 333 339 345 348 341
282 289 299 315 307 308 308 323 327 326 310 310 315 320 321 313 307 304 296 283 253 252 256 257 255 262 283 297 297 313 322 319 324 328 329 336 340 341
300 319 335 328 315 314 335 344 350 8 358 329 310 302 299 299 307 317 323 326 321 291 264 252 249 256 258 268 286 300 311 313 318 325 327 325 318 323
328 338 341 343 339 341 345 346 358 0 319 290 297 302 313 324 329 330 327 337 347 338 326 305 277 247 264 266 265 284 295 297 317 325 323 319 322 326
331 331 339 341 349 352 1 8 5 357 341 323 326 329 333 337 333 329 327 340 345 334 336 343 330 294 251 256 275 286 299 303 304 317 323 324 325 329
14 325 345 353 347 343 345 348 346 335 324 322 326 329 327 324 327 331 336 343 340 334 333 334 336 344 355 341 222 273 294 295 308 313 314 319 319 327
26 350 345 339 328 324 327 329 322 318 318 324 325 325 324 323 326 333 339 343 341 338 333 333 338 348 353 338 327 302 284 299 311 312 310 308 304 315
13 339 325 318 311 313 318 317 323 332 337 337 328 323 327 326 329 332 335 334 330 333 338 344 346 337 306 296 307 314 309 287 293 309 318 320 315 318
346 328 315 311 312 312 311 314 317 321 327 326 322 323 326 330 329 327 327 337 343 345 342 332 316 325 309 306 324 324 324 327 321 294 310 329 341 353
342 333 322 318 317 317 320 320 319 324 328 321 318 323 324 321 319 325 333 342 338 337 327 325 337 351 10 18 346 329 336 349 357 7 11 51 79 324
327 326 325 324 320 318 317 319 320 320 320 319 323 324 321 321 323 327 334 340 340 347 350 350 355 5 4 352 340 340 347 352 2 15 21 22 28 19